Location: Olsztyn
(53.7767°N, 20.4765°E)
Time: 03:50:32
(UTC+01:00)

Transit 2A - Visible Passes

Search period start: 28 January 2022 00:00
Search period end: 07 February 2022 00:00
Orbit: 591 x 966 km, 66.7° (Epoch: 27 January)

Date Brightness Start Highest point End Pass type
(mag) Time Alt. Az. Time Alt. Az. Time Alt. Az.
28 Jan 6.4 17:37:15 10° NW 17:43:29 59° NE 17:49:01 11° ESE visible
28 Jan 7.4 19:20:55 10° NW 19:26:36 41° WSW 19:29:34 23° S visible
29 Jan 6.6 17:02:59 10° NW 17:09:04 49° NE 17:14:43 10° ESE visible
29 Jan 7.0 18:46:31 10° NW 18:52:31 53° WSW 18:57:23 13° SSE visible
29 Jan 9.0 20:32:30 10° W 20:34:19 11° W 20:36:05 10° WSW visible
30 Jan 6.6 18:12:11 10° NW 18:18:20 69° SW 18:23:56 10° SSE visible
30 Jan 8.8 19:56:58 10° WNW 20:00:27 16° WSW 20:03:47 10° SW visible
31 Jan 6.3 17:37:52 10° NW 17:44:07 87° SW 17:49:47 10° SE visible
31 Jan 8.5 19:22:05 10° WNW 19:26:32 22° WSW 19:30:43 10° SSW visible
01 Feb 6.3 17:03:35 10° NW 17:09:50 75° NE 17:15:31 10° SE visible
01 Feb 8.2 18:47:28 10° NW 18:52:34 29° WSW 18:57:18 10° S visible
02 Feb 7.7 18:12:58 10° NW 18:18:33 38° WSW 18:23:39 10° S visible
03 Feb 7.3 17:38:34 10° NW 17:44:28 50° WSW 17:49:49 10° SSE visible
03 Feb 9.4 19:25:13 10° W 19:26:12 10° W 19:27:10 10° WSW visible
04 Feb 6.8 17:04:13 10° NW 17:10:18 66° SW 17:15:49 10° SSE visible
04 Feb 9.1 18:49:10 10° WNW 18:52:21 15° WSW 18:55:23 10° SW visible
05 Feb 9.0 18:14:13 10° WNW 18:18:27 20° WSW 18:22:25 10° SSW visible
06 Feb 8.6 17:39:33 10° NW 17:44:29 27° WSW 17:49:04 10° SSW visible
